Date,TemperatureHighF,TemperatureAvgF,TemperatureLowF,DewpointHighF,DewpointAvgF,DewpointLowF,HumidityHigh,HumidityAvg,HumidityLow,PressureMaxIn,PressureMinIn,WindSpeedMaxMPH,WindSpeedAvgMPH,GustSpeedMaxMPH,PrecipitationSumIn
2013-1-1,46.9,41.5,38.2,45.8,38.2,35.9,96,88,78,30.04,29.50,13,5,22,0.04
2013-1-2,50.3,44.7,38.1,49.2,42.8,35.8,97,93,89,30.32,30.04,10,4,21,0.00
2013-1-3,51.7,49.7,47.7,49.5,48.2,46.6,100,95,91,30.60,30.31,10,4,18,0.00
2013-1-4,49.2,47.8,45.2,46.7,45.1,43.2,96,91,85,30.63,30.58,10,4,16,0.00
2013-1-5,50.0,47.7,44.3,48.8,46.3,43.2,100,95,91,30.58,30.49,9,2,16,0.01
2013-1-6,46.3,44.0,41.8,46.0,43.6,41.2,100,98,94,30.53,30.40,6,1,12,0.00
2013-1-7,46.7,45.0,43.4,45.6,44.3,42.4,100,97,95,30.40,30.26,6,1,12,0.01
2013-1-8,50.4,48.3,46.7,47.9,46.6,45.3,100,94,89,30.27,30.19,8,3,20,0.06
2013-1-9,48.7,44.8,36.9,48.7,43.4,35.1,100,95,85,30.19,30.08,6,2,12,0.06
2013-1-10,41.0,38.7,35.6,39.4,37.5,34.2,100,95,93,30.08,29.93,7,1,12,0.00
2013-1-11,43.5,39.1,35.2,41.2,37.7,34.3,97,95,87,30.09,29.97,7,1,10,0.01
2013-1-12,38.9,37.2,35.9,38.9,35.7,33.7,100,94,88,29.97,29.83,13,7,22,0.20
2013-1-13,37.0,34.5,32.1,35.7,31.0,28.4,95,87,78,30.15,29.95,9,3,15,0.10
2013-1-14,37.1,33.5,30.6,36.8,32.0,28.9,100,94,88,30.11,29.66,10,3,21,0.23
2013-1-15,36.1,33.4,28.7,33.2,30.8,26.9,94,90,85,29.88,29.66,15,4,27,0.00
2013-1-16,32.3,28.7,26.4,30.0,27.3,25.2,97,95,90,30.03,29.83,6,1,10,0.00
2013-1-17,33.7,30.4,26.7,31.4,28.7,25.5,96,93,85,30.07,29.87,5,1,10,0.00
2013-1-18,33.7,30.6,28.8,29.6,28.3,27.3,95,91,83,29.87,29.42,10,6,18,0.00
2013-1-19,32.3,30.4,29.4,31.0,28.8,26.8,95,94,89,29.49,29.39,9,4,15,0.00
2013-1-20,32.0,29.9,28.5,30.4,28.2,26.2,96,94,88,29.47,29.30,6,3,12,0.00
2013-1-21,35.5,30.8,26.6,31.4,28.9,25.1,96,93,83,29.51,29.28,3,0,6,0.06
2013-1-22,34.6,29.9,24.1,33.3,28.7,22.9,97,95,92,29.67,29.50,10,4,18,0.06
2013-1-23,34.3,33.4,32.7,32.4,31.6,30.7,96,93,90,29.80,29.67,9,4,15,0.08
2013-1-24,34.2,32.9,31.7,31.6,30.5,28.9,95,91,86,30.14,29.80,6,1,12,0.05
2013-1-25,36.3,33.2,30.9,35.1,30.5,27.7,96,90,83,30.12,29.56,9,3,21,0.13
2013-1-26,44.8,40.5,35.1,42.9,38.5,34.1,100,93,82,29.86,29.55,12,4,30,0.35
2013-1-27,49.1,44.4,38.1,49.1,40.6,35.4,100,87,62,29.65,29.31,14,6,29,0.36
2013-1-28,49.6,42.8,35.9,48.3,40.6,33.6,97,92,85,29.84,29.56,12,5,29,0.23
2013-1-29,54.1,51.5,47.7,53.2,50.5,46.0,100,96,88,29.69,29.58,14,7,30,0.20
2013-1-30,52.7,48.3,43.1,51.9,43.2,37.0,97,83,63,30.07,29.54,15,7,29,0.22
2013-1-31,49.5,46.4,42.0,45.5,41.1,38.1,95,82,67,30.07,29.82,17,7,35,0.08